Regional Weather Roundup
Issued by NWS

Home | Current Version | Previous Version | Text Only | Print | Product List | Glossary On
Versions: 1 2 3 4 5 6 7 8 9 10 11 12 13 14 15 16 17 18 19 20 21 22 23 24 25 26 27 28 29 30 31 32 33 34 35 36 37 38 39 40 41 42 43 44 45 46 47 48 49 50
000
ASUS45 KTFX 302210
RWRMT
MONTANA REGIONAL WEATHER ROUNDUP
NATIONAL WEATHER SERVICE GREAT FALLS MT
400 PM MDT TUE JUN 30 2015

NOTE: "FAIR" INDICATES FEW OR NO CLOUDS BELOW 12000 FEET WITH NO
SIGNIFICANT WEATHER AND/OR OBSTRUCTIONS TO VISIBILITY.

MTZ001>007-043-302300-
WEST OF THE DIVIDE

CITY           SKY/WX    TMP DP  RH WIND       PRES   REMARKS
KALISPELL      PTCLDY    92  43  18 W13G20    29.98F
MISSOULA       MOSUNNY   91  46  21 NW17G25   29.99F
BUTTE          MOSUNNY   86  40  19 NW13G25   30.13F
MULLAN PASS    SUNNY     76  43  30 VRB6      30.24S
DEER LODGE       N/A     84  48  28 NW10      30.11F
EUREKA           N/A     86  50  28 N5        30.00F
HAMILTON         N/A     91  52  25 NW5       30.00F
PLAINS           N/A     92  45  19 NW9       29.98F
RONAN            N/A     92  44  18 W13       30.04F
THOMPSON FALLS   N/A     93  42  17 NW10      30.01F
$$

MTZ008-052>055-302300-
SOUTHWEST MONTANA

CITY           SKY/WX    TMP DP  RH WIND       PRES   REMARKS
BOZEMAN        SUNNY     93  41  16 NW18G24   30.02F
DILLON         SUNNY     87  47  24 W17G29    30.08F
W YELLOWSTONE  MOSUNNY   81  48  32 SW7       30.21F
THREE FORKS      N/A     93  42  17 NW3       30.01F
$$

MTZ009-010-012-014-046-048-049-054-302300-
EAST SLOPES AND CENTRAL MONTANA

CITY           SKY/WX    TMP DP  RH WIND       PRES   REMARKS
CUT BANK       MOSUNNY   87  46  24 NW17G26   30.00F
GREAT FALLS    SUNNY     92  38  15 NW17G29   29.96F
MALMSTROM AFB  MOSUNNY   91  37  15 W21G29    29.96S
HELENA         SUNNY     94  46  19 W18G25    29.98F HX  90
CONRAD           N/A     88  52  29 W9        30.02S
$$

MTZ011-013-016-021-045-047-050-051-302300-
NORTH CENTRAL MONTANA

CITY           SKY/WX    TMP DP  RH WIND       PRES   REMARKS
HAVRE          MOSUNNY   89  54  30 NW21G33   29.90S
LEWISTOWN      SUNNY     90  44  20 NW17G29   29.99
CHINOOK          N/A     88  55  33 NW17G31   29.87R
FORT BENTON      N/A     91  45  19 NW17G26   29.91S
$$

MTZ017>020-022>027-061-062-302300-
NORTHEAST MONTANA

CITY           SKY/WX    TMP DP  RH WIND       PRES   REMARKS
JORDAN           N/A     93  52  24 NW15      29.82F HX  90
SIDNEY         SUNNY     88  63  42 E8        29.81F
WOLF POINT     SUNNY     91  62  37 E10       29.80S HX  91
MALTA            N/A     90  52  27 W17       29.80
PLENTYWOOD       N/A     72  61  68 E12G17    29.88F
POPLAR           N/A     84  64  51 NE14      29.81S
SCOBEY           N/A     78  55  44 E14       29.87F
$$

MTZ028>42-056>058-302300-
SOUTHCENTRAL AND SOUTHEAST MONTANA

CITY           SKY/WX    TMP DP  RH WIND       PRES   REMARKS
BAKER          SUNNY     88  62  41 W12       29.86F
BILLINGS       MOSUNNY   96  43  16 NW22G31   29.94F HX  92
LIVINGSTON     MOSUNNY   92  46  20 W24G30    30.03F
MILES CITY     SUNNY     96  48  19 NW22G32   29.82F HX  92
EKALAKA          N/A     87  56  34 NW7       29.89F
FORSYTH          N/A     93  48  21 W17G24    29.83F HX  90
LAUREL           N/A     94  48  20 W15       29.94F HX  90
ROUNDUP          N/A     92  44  18 NW17      29.85F
$$

REGIONAL REPORTS...DAKOTAS

CITY           SKY/WX    TMP DP  RH WIND       PRES   REMARKS
WILLISTON      PTSUNNY   79  57  46 E17G24    29.87F HAZE
MINOT          CLOUDY    68  63  84 CALM      29.90F HAZE
DICKINSON      PTSUNNY   76  65  68 SE12      29.88S
BEACH          FAIR      82  66  57 SE14G20   29.85F
CROSBY         TSTM      63  63 100 E5        29.92S
BISMARCK       LGT RAIN  73  65  75 N9        29.94R
GRAND FORKS    CLOUDY    75  55  49 SE3       29.91S
FARGO          CLOUDY    75  57  53 CALM      29.91R
BUFFALO SD       N/A     84  66  54 SE13      29.82F
RAPID CITY     CLOUDY    84  71  65 E8        29.90F
$$

REGIONAL REPORTS...WYOMING/IDAHO/WASHINGTON

CITY           SKY/WX    TMP DP  RH WIND       PRES   REMARKS
GILLETTE       SUNNY     89  53  29 NW22      29.99F
SHERIDAN       MOSUNNY   91  51  25 N23G29    29.97F
BUFFALO WY     PTSUNNY   76  61  59 W10       30.07F
CODY           PTSUNNY   79  54  41 SW14      30.08F
YELLOWSTONE LA   N/A     77  41  27 VRB6      30.33R
IDAHO FALLS    TSTM      76  60  57 W10       30.14R
SALMON         MOSUNNY   93  48  21 NW6       29.95F HX  90
BOISE          SUNNY    100  50  18 W13G21    29.94F HX  97
SPOKANE        MOSUNNY   92  44  19 W14G21    30.00F
$$

REGIONAL REPORTS...ALBERTA

CITY           SKY/WX    TMP DP  RH WIND       PRES   REMARKS
EDMONTON       PTSUNNY   70  55  60 E6        29.98F
CALGARY        PTSUNNY   72  57  60 NE7G18    30.05R
LETHBRIDGE     MOSUNNY   81  55  41 N9G22     29.99F
MEDICINE HAT   SUNNY     81  54  39 N10G17    29.93R SMOKE
WATERTON GATE    N/A     81  57  44 NE9         N/A
CARDSTON         N/A    N/A N/A N/A NE9         N/A
MILK RIVER       N/A     82  54  36 N16G23      N/A
ONEFOUR          N/A     81  52  36 NW29G37     N/A
$$

REGIONAL REPORTS...SASKATCHEWAN

CITY           SKY/WX    TMP DP  RH WIND       PRES   REMARKS
SWIFT CURRENT  MOSUNNY   75  57  53 E21G26    29.89S HAZE
REGINA         CLOUDY    63  61  94 SW3       29.95R SMOKE
SASKATOON        N/A     70  57  64 NW7       29.94F SMOKE
CYPRESS HILLS    N/A     70  52  52 NW10G18     N/A
VAL MARIE        N/A     88  50  27 NW15G23     N/A
ROCKGLEN         N/A     79  55  44 E15G21      N/A
ASSINIBOIA       N/A     73  57  56 SW5         N/A
$$


USA.gov is the U.S. government's official web portal to all federal, state and local government web resources and services.